Location: Pescara
(42.4670°N, 14.2170°E)
Time: 18:17:54
(UTC+02:00)

ISS - Pass Details

Date: 20 May 2021
Orbit: 417 x 422 km, 51.6° (Epoch: 18 June)

Event Time Altitude Azimuth Distance (km) Brightness Sun altitude
Rises 01:20:01 0° 306° (NW) 2,371 0.5 -27.4°
Reaches altitude 10° 01:22:13 10° 315° (NW) 1,506 -0.5 -27.3°
Enters shadow 01:22:54 15° 321° (NW) 1,252 -0.9 -27.3°
